Location: Lecco
(45.8566°N, 9.3977°E)
Time: 17:46:03
(UTC+02:00)

Courier 1B Rocket - Pass Details

Date: 01 September 2019
Orbit: 920 x 1202 km, 28.2° (Epoch: 17 October)

Event Time Altitude Azimuth Distance (km) Brightness Sun altitude
Rises 03:41:54 0° 243° (WSW) 3,717 - -27.4°
Reaches altitude 10° 03:45:36 10° 223° (SW) 2,822 - -27.0°
Maximum altitude 03:49:39 16° 187° (S) 2,439 - -26.5°
Exits shadow 03:53:46 10° 152° (SSE) 2,930 7.3 -26.1°
Drops below altitude 10° 03:53:50 10° 151° (SSE) 2,946 7.3 -26.1°
Sets 03:57:51 0° 132° (SE) 3,960 8.2 -25.6°
